Location: Makanda
(37.6176°N, 89.2090°W)
Time: 04:01:16
(UTC+00:00)

Cosmos 1515 - Pass Details

Date: 23 September 2019
Orbit: 507 x 516 km, 82.5° (Epoch: 17 October)

Event Time Altitude Azimuth Distance (km) Brightness Sun altitude
Rises 11:07:17 0° 187° (S) 2,608 7.1 -8.3°
Reaches altitude 10° 11:09:24 10° 188° (S) 1,728 6.2 -7.9°
Maximum altitude 11:13:11 83° 276° (W) 523 3.6 -7.2°
Drops below altitude 10° 11:17:02 10° 5° (N) 1,747 6.5 -6.4°
Sets 11:19:10 0° 7° (N) 2,640 7.5 -6.0°
